17.04.2024;22:00;11
17.04.2024;21:00;15
17.04.2024;20:00;16
17.04.2024;19:00;13
17.04.2024;18:00;10
17.04.2024;17:00;13
17.04.2024;16:00;13
17.04.2024;15:00;16
17.04.2024;14:00;16
17.04.2024;13:00;14
17.04.2024;12:00;12
17.04.2024;11:00;9
17.04.2024;10:00;8
17.04.2024;09:00;10
17.04.2024;08:00;11
17.04.2024;07:00;10
17.04.2024;06:00;5
17.04.2024;05:00;3
17.04.2024;04:00;3
17.04.2024;03:00;3
17.04.2024;02:00;3
17.04.2024;01:00;3
16.04.2024;24:00;5
16.04.2024;23:00;6
16.04.2024;22:00;10
16.04.2024;21:00;11
16.04.2024;20:00;14
16.04.2024;19:00;14
16.04.2024;18:00;14
16.04.2024;17:00;14
16.04.2024;16:00;15
16.04.2024;15:00;14
16.04.2024;14:00;13
16.04.2024;13:00;13
16.04.2024;12:00;10
16.04.2024;11:00;9
16.04.2024;10:00;5
16.04.2024;09:00;6
16.04.2024;08:00;9
16.04.2024;07:00;9
16.04.2024;06:00;7
16.04.2024;05:00;3
16.04.2024;04:00;1
16.04.2024;03:00;1
16.04.2024;02:00;2
16.04.2024;01:00;7
15.04.2024;24:00;12
15.04.2024;23:00;12
15.04.2024;22:00;16
15.04.2024;21:00;18
15.04.2024;20:00;20
15.04.2024;19:00;22
15.04.2024;18:00;21
15.04.2024;17:00;17
15.04.2024;16:00;19
15.04.2024;15:00;26
15.04.2024;14:00;31
15.04.2024;13:00;37
15.04.2024;12:00;43
15.04.2024;11:00;29
15.04.2024;10:00;26
15.04.2024;09:00;37
15.04.2024;08:00;28
15.04.2024;07:00;19
15.04.2024;06:00;16
15.04.2024;05:00;14
15.04.2024;04:00;17
15.04.2024;03:00;19
15.04.2024;02:00;28
15.04.2024;01:00;35
14.04.2024;24:00;39
14.04.2024;23:00;40
14.04.2024;22:00;28
14.04.2024;21:00;31
14.04.2024;20:00;33
14.04.2024;19:00;26
14.04.2024;18:00;21
14.04.2024;17:00;20
14.04.2024;16:00;19
14.04.2024;15:00;19
14.04.2024;14:00;19
14.04.2024;13:00;17
14.04.2024;12:00;19
14.04.2024;11:00;14
14.04.2024;10:00;14
14.04.2024;09:00;13
14.04.2024;08:00;12
14.04.2024;07:00;11
14.04.2024;06:00;12
14.04.2024;05:00;15
14.04.2024;04:00;18
14.04.2024;03:00;19
14.04.2024;02:00;22
14.04.2024;01:00;30
13.04.2024;24:00;50
13.04.2024;23:00;55
13.04.2024;22:00;70
13.04.2024;21:00;52
13.04.2024;20:00;32
13.04.2024;19:00;28
13.04.2024;18:00;23
13.04.2024;17:00;20
13.04.2024;16:00;17
13.04.2024;15:00;19
13.04.2024;14:00;19
13.04.2024;13:00;25
13.04.2024;12:00;30
13.04.2024;11:00;24
13.04.2024;10:00;21
13.04.2024;09:00;21
13.04.2024;08:00;22
13.04.2024;07:00;23
13.04.2024;06:00;20
13.04.2024;05:00;19
13.04.2024;04:00;19
13.04.2024;03:00;25
13.04.2024;02:00;32
13.04.2024;01:00;43
12.04.2024;24:00;56
12.04.2024;23:00;59
12.04.2024;22:00;50
12.04.2024;21:00;42
12.04.2024;20:00;40
12.04.2024;19:00;37
12.04.2024;18:00;37
12.04.2024;17:00;33
12.04.2024;16:00;36
12.04.2024;15:00;34
12.04.2024;14:00;30
12.04.2024;13:00;31
12.04.2024;12:00;30
12.04.2024;11:00;27
12.04.2024;10:00;31
12.04.2024;09:00;32
12.04.2024;08:00;25
12.04.2024;07:00;19
12.04.2024;06:00;20
12.04.2024;05:00;20
12.04.2024;04:00;22
12.04.2024;03:00;22
12.04.2024;02:00;24
12.04.2024;01:00;27
